NOAA-19
1 33591U 09005A 21133.76991839 .00000081 00000-0 69452-4 0 9996
2 33591 99.1856 153.6126 0013197 226.7531 133.2539 14.12466643632028
SRMSAT
1 37841U 11058D 21132.79172529 .00000303 00000-0 21057-4 0 9994
2 37841 19.9706 156.6153 0011652 262.0865 255.2576 14.10694353494621
HRBE
1 37855U 11061F 21133.71326023 .00001123 00000-0 61520-4 0 9996
2 37855 101.7146 39.1082 0167148 173.9858 186.3415 15.07547075521413
RS-40
1 38735U 12041C 21133.48874883 .00000038 00000-0 20024-3 0 9996
2 38735 82.4751 154.8986 0017604 157.7432 202.4422 12.42583113398841
ZACUBE-1
1 39417U 13066B 21133.66675184 .00000306 00000-0 44601-4 0 9991
2 39417 97.5915 119.7994 0057038 275.4373 84.0336 14.81500020403929
GOMX-1
1 39430U 13066Q 21133.84441292 .00000670 00000-0 12989-3 0 9994
2 39430 97.8142 58.9038 0149317 223.5492 135.3862 14.59599795397995
LO-74
1 39440U 13066AA 21133.47717704 .00000343 00000-0 54331-4 0 9993
2 39440 97.6738 104.5526 0079657 350.1778 9.7871 14.76227978402461
AO-73
1 39444U 13066AE 21133.53716045 .00000380 00000-0 52701-4 0 9991
2 39444 97.5824 122.0345 0056048 266.1387 93.3418 14.82403600402859
SPROUT
1 39770U 14029E 21133.78740137 .00000734 00000-0 85315-4 0 9999
2 39770 97.9121 245.0985 0007885 330.0564 30.0192 14.88368772378185
DTUSAT-2
1 40030U 14033W 21133.74608018 .00000399 00000-0 48423-4 0 9998
2 40030 97.9158 61.0011 0010501 292.7277 67.2829 14.88972039374661
EO-80
1 40032U 14033Y 21133.77548617 .00000336 00000-0 41775-4 0 9995
2 40032 97.9165 61.0366 0010417 293.6488 66.3635 14.88928679374659
HODOYOSHI-1
1 40299U 14070B 21133.85065586 .00000247 00000-0 12779-4 0 9992
2 40299 97.2859 208.3651 0014639 108.5571 358.4827 15.24664249362147
FIREBIRD FU3
1 40377U 15003B 21133.64924998 .00002605 00000-0 98317-4 0 9996
2 40377 99.0945 267.6090 0117097 289.6718 69.1908 15.22176868347503
FIREBIRD FU4
1 40378U 15003C 21133.62678806 .00002601 00000-0 97994-4 0 9995
2 40378 99.0950 267.7170 0117202 289.5556 69.3050 15.22226581347505
GRIFEX
1 40379U 15003D 21133.53247163 .00001433 00000-0 61778-4 0 9997
2 40379 99.0904 257.2235 0127993 321.9042 37.3189 15.17914734346897
NO-84
1 40654U 15025D 21132.52653230 .00020029 00000-0 15542-3 0 92
2 40654 54.9829 211.0222 0081294 332.2920 27.3915 15.67494126 1411
XW-2A
1 40903U 15049E 21133.85733514 .00004083 00000-0 87994-4 0 9997
2 40903 97.2373 188.4430 0013908 135.5860 340.5528 15.45074049317452
XW-2C
1 40906U 15049H 21133.86338289 .00001051 00000-0 57044-4 0 9996
2 40906 97.4840 136.6526 0013166 313.2836 164.3517 15.16683189312321
XW-2D
1 40907U 15049J 21133.86523330 .00001091 00000-0 58569-4 0 9997
2 40907 97.4824 136.4362 0012336 309.5238 169.8707 15.16995902312355
LILACSAT-2
1 40908U 15049K 21133.66517692 -.00000064 00000-0 11654-6 0 9996
2 40908 97.5028 134.1331 0014682 325.9941 145.3634 15.14404338311963
XW-2E
1 40909U 15049L 21133.87516385 .00002105 00000-0 10247-3 0 9999
2 40909 97.4644 140.4124 0011310 294.8899 184.2012 15.19437849312688
XW-2F
1 40910U 15049M 21133.86728306 .00001399 00000-0 70196-4 0 9992
2 40910 97.4707 139.4815 0012581 294.9369 184.7705 15.18937972312471
XW-2B
1 40911U 15049N 21133.86584817 .00001248 00000-0 66657-4 0 9990
2 40911 97.4824 137.1216 0012449 311.2657 166.5819 15.16913881312248
DCBB
1 40912U 15049P 21133.91624023 .00002088 00000-0 95898-4 0 9993
2 40912 97.4440 143.8926 0012429 262.9201 184.6765 15.21462409312949
TW-1A
1 40928U 15051D 21133.90315139 .00006615 00000-0 13931-3 0 9994
2 40928 97.0774 159.6387 0011426 64.9399 55.2797 15.45524921316353
IO-86
1 40931U 15052B 21133.55775801 .00000828 00000-0 26087-4 0 9993
2 40931 5.9995 141.2050 0014042 270.1948 89.6555 14.76675520304133
ATHENOXAT-1
1 41168U 15077C 21133.44721554 .00002508 00000-0 92129-4 0 9994
2 41168 14.9861 158.3312 0011942 42.7947 354.4215 15.15587367299466
ChubuSat-2
1 41338U 16012B 21132.47952890 .00000440 00000-0 27285-4 0 9998
2 41338 31.0038 54.6517 0013625 137.6968 222.4720 15.00512931287194
ChubuSat-3
1 41339U 16012C 21133.76987249 .00000289 00000-0 15567-4 0 9999
2 41339 31.0128 43.7054 0013220 157.9511 202.1714 15.00661803287382
Horyu-4
1 41340U 16012D 21133.79333615 .00000688 00000-0 44781-4 0 9999
2 41340 31.0064 27.5600 0013875 189.3283 170.7096 15.01864374287574
e-st@r-II
1 41459U 16025D 21133.84566660 .00004842 00000-0 23736-3 0 9990
2 41459 98.1371 267.9962 0161377 178.8243 181.3403 15.07901627277209
AAUSAT4
1 41460U 16025E 21133.81250718 .00005523 00000-0 25870-3 0 9991
2 41460 98.1360 271.6650 0147979 163.2613 197.3575 15.10908982277488
LO-87
1 41557U 16033B 21133.86020201 .00002308 00000-0 83670-4 0 9995
2 41557 97.3919 227.9968 0012550 6.4428 133.3668 15.29321997276241
NuSat2
1 41558U 16033C 21133.89491336 .00002004 00000-0 68526-4 0 9996
2 41558 97.4017 231.6917 0011593 0.7157 65.8974 15.31413163276430
Lapan A3
1 41603U 16040E 21133.90505983 .00000034 00000-0 46384-5 0 9991
2 41603 97.2570 182.1437 0014768 119.7726 4.7340 15.20016366271335
Pratham
1 41783U 16059A 21133.72413154 .00000073 00000-0 23266-4 0 9994
2 41783 97.9672 185.0142 0033370 358.0424 2.0642 14.63135143247174
TY-1
1 41844U 16066D 21133.89963146 .00002119 00000-0 85870-4 0 9991
2 41844 97.3985 144.4755 0012789 258.1478 218.8652 15.25699317250632
CAS-2T
1 41847U 16066G 21133.75864431 .00000067 00000-0 21140-4 0 9996
2 41847 98.6038 192.7354 0364582 324.1197 33.5990 14.38184641236893
EO-88
1 42017U 17008BX 21133.72421031 .00002875 00000-0 10789-3 0 9990
2 42017 97.3174 201.9455 0004851 217.6663 142.4237 15.28011356235951
CAS-4B
1 42759U 17034B 21133.70594291 .00000801 00000-0 61497-4 0 9999
2 42759 43.0193 12.1138 0010082 302.5339 157.6292 15.10191222215892
CAS-4A
1 42761U 17034D 21133.89094773 .00000702 00000-0 55420-4 0 9991
2 42761 43.0197 10.1752 0010392 305.0726 120.5473 15.10272731215920
NIUSat
1 42766U 17036B 21133.68306568 .00001553 00000-0 69550-4 0 9997
2 42766 97.2531 180.8602 0013425 301.8138 58.1791 15.22634131215926
Aalto 1
1 42775U 17036L 21133.65489004 .00001249 00000-0 56573-4 0 9994
2 42775 97.2501 181.0993 0011970 301.4443 58.5623 15.22601981215900
URSA MAIOR
1 42776U 17036M 21133.66326062 .00001356 00000-0 60746-4 0 9996
2 42776 97.2515 181.5534 0011763 300.8072 59.2007 15.22855967215924
Max Valier Sat
1 42778U 17036P 21133.69171617 .00001517 00000-0 66359-4 0 9990
2 42778 97.2579 183.4379 0010228 303.7199 56.3063 15.23510087215990
Pegasus
1 42784U 17036V 21133.71224116 .00001825 00000-0 77399-4 0 9991
2 42784 97.2533 183.9081 0009960 307.7392 52.2942 15.24314557216067
NUDATSat
1 42787U 17036Y 21133.89316293 .00002137 00000-0 85338-4 0 9990
2 42787 97.2572 186.3742 0009298 302.3574 57.6767 15.26178063216067
SUCHAI 1
1 42788U 17036Z 21133.66343114 .00002551 00000-0 10471-3 0 9993
2 42788 97.2539 184.8043 0009329 304.7397 55.2962 15.25079401216181
SKCUBE
1 42789U 17036AA 21132.70233291 .00002034 00000-0 84688-4 0 9990
2 42789 97.2539 183.6022 0009382 309.6890 50.3520 15.24823062215945
VZLUSAT 1
1 42790U 17036AB 21132.70650893 .00003048 00000-0 12067-3 0 9990
2 42790 97.2565 185.2125 0008550 304.5297 55.5134 15.26153931216031
VENTA 1
1 42791U 17036AC 21132.41976586 .00001311 00000-0 55664-4 0 9991
2 42791 97.2536 183.3467 0009112 311.6644 48.3813 15.24775118215890
Robusta 1B
1 42792U 17036AD 21133.66085877 .00002317 00000-0 95437-4 0 9993
2 42792 97.2535 184.8967 0008839 305.8681 54.1736 15.25058244216123
